Airfield :
LOGIN :

Register | Disclaimer

   EN    FR    IT 

 










Legend :    VFR   Marginal VFR   IFR   Intensive IFR   Very Intensive IFR
Visi :
Ceiling :
>= 8 km
>= 3000ft
5 to 8 km
1000 to 3000 ft
1500m to 5 km
500 to 1000 ft
800 to 1500m
200 to 500 ft
< 800m
< 200 ft
Symbols :   Thunderstorms  Fog  Heavy snow  Heavy precipitations  Wind > 20 kt
SIGMETs :     Misc.  Thunderstorms  Icing  Turbulence  Mountain Waves  Volcanic Ashes







- Airport Elevation : 28 ft
- IATA code : SOZ
- Download approach charts


LFKS - Solenzara

CURRENT METAR :
  • 171230Z AUTO 15005KT 110V180 CAVOK 14/06 Q1029

EXPIRED METARs :
  • 171200Z AUTO 14005KT 120V180 CAVOK 14/07 Q1029
  • 171130Z AUTO 12005KT 080V160 CAVOK 15/07 Q1029
  • 171100Z AUTO 12005KT 080V160 CAVOK 14/08 Q1030
  • 171030Z AUTO 12004KT 080V160 CAVOK 14/07 Q1030
  • 171000Z AUTO 09004KT 060V130 CAVOK 14/07 Q1030

TAF AMD TAF LFKS
Valid from the 17 at 09:00 until the 18 at 09:00 UTC


170930Z 1709/1809 11005KT CAVOK
No reported NOTAMs for that airfield.



MET'MAP, your aeronautical weather chart ! - Copyright ORBIFLY December 2007 - Disclaimer

ORBIFLY MET'MAP TEAM :

Programming & Development : Alexandra Zaïnal
Concept & Development : Baudouin d'Aumeries
Co-Development & Prog : Marc-Olivier Méhu
Technical & hardware support : Manuel Goepfert

Contact : metmap@orbifly.com




SOURCES & CREDITS :

   NOAA